Regional Weather Roundup
Issued by NWS

Home | Current Version | Previous Version | Graphics & Text | Print | Product List | Glossary On
Versions: 1 2 3 4 5 6 7 8 9 10 11 12 13 14 15 16 17 18 19 20 21 22 23 24 25 26 27 28 29 30 31 32 33 34 35 36 37 38 39 40 41 42 43 44 45 46 47 48 49 50
960
ASUS43 KLOT 141758
RWRIL

ILLINOIS REGIONAL WEATHER ROUNDUP
NATIONAL WEATHER SERVICE CHICAGO/ROMEOVILLE IL
1200 PM CST SUN FEB 14 2016

NOTE: "FAIR" INDICATES FEW OR NO CLOUDS BELOW 12,000 FEET WITH NO
SIGNIFICANT WEATHER AND/OR OBSTRUCTIONS TO VISIBILITY.

* THESE STATIONS ARE NOT UNDER NWS QUALITY CONTROL. THEY ALSO MAY NOT
  REPORT WEATHER SUCH AS PRECIPITATION OR FOG.

ILZ001-002-007-009-015-016-024-141900-
NORTHWEST ILLINOIS

CITY           SKY/WX    TMP DP  RH WIND       PRES   REMARKS
MOLINE         LGT SNOW  19  12  73 SE16      30.10F VSB 1   WCI   5
$$

ILZ003-004-008-010-011-017-018-141900-
NORTH CENTRAL ILLINOIS

CITY           SKY/WX    TMP DP  RH WIND       PRES   REMARKS
ROCKFORD       SNOW      15  11  83 SE14      30.20F VSB 1/4 WCI   0
$$

ILZ005-006-012>014-019>023-141900-
NORTHEAST ILLINOIS

CITY           SKY/WX    TMP DP  RH WIND       PRES   REMARKS
CHICAGO-OHARE  FLURRIES  17   3  54 SE13      30.23F WCI   4
6HR MIN TEMP:  13; 6HR MAX TEMP:  17;

CHICAGO-MIDWAY NOT AVBL
AURORA         NOT AVBL
WAUKEGAN       NOT AVBL
DUPAGE AIRPORT SNOW      16   7  67 SE12      30.21F VSB 1/4 WCI   3
WHEELING       NOT AVBL
NORTHERLY ISL    N/A     18   5  57 SE14        N/A  WCI   4
$$

LMZ740>746-141900-
SOUTHERN LAKE MICHIGAN

STATION/POSITION SKY/WX   TEMP    WIND        PRES    VSBY  WAVE
                          AIR SEA DIR/SP/G                  HT/PER
                          (F)     (DEG/KT/KT) (MB)    (MI)  (FT/S)
HARRISON CRIB              17     150/ 17/ 21   N/A
BURNHAM HARBOR             18     120/ 14/ 18   N/A
CALUMET HARBOR             16     130/ 13/ 18 1024.4F
BURNS HARBOR               16     160/ 10/ 15 1026.1F
MICHIGAN CITY              14     120/ 12/ 14   N/A
$$

ILZ025>027-034>036-040-047-049-050-058-095>099-141900-
WEST-CENTRAL ILLINOIS

CITY           SKY/WX    TMP DP  RH WIND       PRES   REMARKS
$$

ILZ028>032-037-038-041>044-048-051>054-059>061-141900-
CENTRAL ILLINOIS

CITY           SKY/WX    TMP DP  RH WIND       PRES   REMARKS
DECATUR        SNOW      19  15  84 SE17      30.14F VSB 1/2 WCI   4
PEORIA         NOT AVBL
SPRINGFIELD    SNOW      21  18  86 SE13      30.12F VSB 1/2 WCI   9
TAYLORVILLE    NOT AVBL
$$

ILZ033-039-045-046-055>057-062-063-141900-
EAST-CENTRAL ILLINOIS

CITY           SKY/WX    TMP DP  RH WIND       PRES   REMARKS
PARIS*         LGT SNOW  19  16  88 SE13      30.21F VSB 3/4 WCI   6
$$

ILZ079-100>102-141900-
SOUTHWEST ILLINOIS

CITY           SKY/WX    TMP DP  RH WIND       PRES   REMARKS
ALTON          LGT SNOW  21  19  93 SE14      30.10  VSB 1   WCI   8
BELLEVILLE     LGT SNOW  23  21  93 SE13      30.11F VSB 1   WCI  11
CAHOKIA*       LGT SNOW  23  18  80 SE12      30.11F WCI  12
$$

ILZ064>066-069>071-074>076-080>082-084>086-088>090-092>094-141900-
SOUTH-CENTRAL ILLINOIS

CITY           SKY/WX    TMP DP  RH WIND       PRES   REMARKS
CARBONDALE     NOT AVBL
MARION         LGT SNOW  25  21  86 SE12      30.14F WCI  14
$$

ILZ067-068-072-073-078-083-087-091-141900-
SOUTHEAST ILLINOIS

CITY           SKY/WX    TMP DP  RH WIND       PRES   REMARKS
$$

ABBREVIATIONS USED IN REMARKS
   TC - TEMPERATURE IN CELSIUS
  WCI - WIND CHILL INDEX
   HX - HEAT INDEX
  VSB - VISIBILITY
$$





USA.gov is the U.S. government's official web portal to all federal, state and local government web resources and services.